Location: Ulm
(48.3980°N, 9.9777°E)
Time: 19:17:40
(UTC+01:00)

ISS - Pass Details

Date: 14 November 2017
Orbit: 402 x 407 km, 51.6° (Epoch: 24 November)

Event Time Altitude Azimuth Distance (km) Brightness Sun altitude
Exits shadow 05:45:14 47° 261° (W) 543 -3.7 -16.7°
Maximum altitude 05:45:54 62° 208° (SSW) 458 -3.7 -16.6°
Drops below altitude 10° 05:49:08 10° 127° (SE) 1,451 0.0 -16.1°
Sets 05:51:12 0° 123° (ESE) 2,308 1.3 -15.7°
